Terminal Aerodrome Forecast
Issued by NWS

Home | Current Version | Previous Version | Text Only | Print | Product List | Glossary On
Versions: 1 2 3 4 5 6 7 8 9 10 11 12 13 14 15 16 17 18 19 20 21 22 23 24 25 26 27 28
000
FTUS44 KHGX 300520
TAFCXO
TAF
KCXO 300520Z 3006/0106 17012G19KT P6SM VCSH OVC019
      TEMPO 3006/3010 -TSRA BKN015CB
     FM301200 17005KT 5SM -TSRA BR SCT010 BKN020CB
     FM301800 15006KT P6SM SCT025 BKN035
     FM302100 27006KT P6SM VCTS SCT040CB
     FM010300 14005KT P6SM BKN050=

USA.gov is the U.S. government's official web portal to all federal, state and local government web resources and services.